Time+07,TemperatureF,Dew PointF,Humidity,Sea Level PressureIn,VisibilityMPH,Wind Direction,Wind SpeedMPH,Gust SpeedMPH,PrecipitationIn,Events,Conditions,WindDirDegrees,DateUTC
7:00 AM,77,76,97,29.81,6,Calm,Calm,,,,Partly Cloudy,,2012-10-08 00:00:00
8:30 AM,82.4,73.4,74,29.83,6.2,South,3.5,-,N/A,,Mostly Cloudy,180,2012-10-08 01:30:00
9:00 AM,84.2,73.4,70,29.83,6.2,SSW,5.8,-,N/A,,Mostly Cloudy,210,2012-10-08 02:00:00
9:30 AM,84.2,73.4,70,29.86,6.2,SSW,5.8,-,N/A,,Mostly Cloudy,210,2012-10-08 02:30:00
10:00 AM,86.0,73.4,66,29.83,6.2,SSW,4.6,-,N/A,,Scattered Clouds,210,2012-10-08 03:00:00
10:30 AM,84.2,73.4,70,29.83,6.2,South,6.9,-,N/A,,Scattered Clouds,180,2012-10-08 03:30:00
11:00 AM,84.2,73.4,70,29.83,6.2,SSW,4.6,-,N/A,,Mostly Cloudy,210,2012-10-08 04:00:00
12:00 PM,86.0,73.4,66,29.80,6.2,SSE,6.9,-,N/A,,Mostly Cloudy,150,2012-10-08 05:00:00
12:30 PM,86.0,73.4,66,29.80,6.2,SSE,3.5,-,N/A,,Mostly Cloudy,150,2012-10-08 05:30:00
1:00 PM,84.2,75.2,74,29.77,5.6,SSW,9.2,-,N/A,Rain,Rain Showers,210,2012-10-08 06:00:00
1:30 PM,86.0,73.4,66,29.74,6.2,SSE,5.8,-,N/A,,Mostly Cloudy,150,2012-10-08 06:30:00
2:00 PM,87.8,75.2,66,29.74,6.2,SSE,13.8,-,N/A,,Mostly Cloudy,160,2012-10-08 07:00:00
2:30 PM,87.8,73.4,62,29.71,6.2,SSE,6.9,-,N/A,,Mostly Cloudy,160,2012-10-08 07:30:00
3:00 PM,87.8,75.2,66,29.71,6.2,SSE,6.9,-,N/A,,Mostly Cloudy,160,2012-10-08 08:00:00
3:30 PM,87.8,73.4,62,29.71,6.2,South,11.5,-,N/A,,Mostly Cloudy,170,2012-10-08 08:30:00
4:00 PM,87.8,75.2,66,29.74,6.2,SSE,12.7,-,N/A,,Mostly Cloudy,150,2012-10-08 09:00:00
4:30 PM,86.0,73.4,66,29.74,6.2,South,10.4,-,N/A,,Mostly Cloudy,170,2012-10-08 09:30:00
5:00 PM,86.0,75.2,70,29.74,6.2,SSE,9.2,-,N/A,,Mostly Cloudy,160,2012-10-08 10:00:00
5:30 PM,84.2,75.2,74,29.74,6.2,SSE,11.5,-,N/A,,Mostly Cloudy,160,2012-10-08 10:30:00
6:00 PM,84.2,75.2,74,29.77,6.2,South,10.4,-,N/A,,Mostly Cloudy,190,2012-10-08 11:00:00
6:30 PM,84.2,75.2,74,29.77,6.2,SSW,5.8,-,N/A,,Mostly Cloudy,210,2012-10-08 11:30:00
7:00 PM,80.6,73.4,79,9999.90,5.0,WNW,9.2,-,N/A,,Mostly Cloudy,290,2012-10-08 12:00:00
7:30 PM,80.6,73.4,79,29.80,5.0,West,3.5,-,N/A,,Mostly Cloudy,270,2012-10-08 12:30:00
8:00 PM,80.6,73.4,79,29.83,5.0,WNW,4.6,-,N/A,,Scattered Clouds,300,2012-10-08 13:00:00
8:30 PM,80.6,73.4,79,29.83,5.6,West,1.2,-,N/A,,Scattered Clouds,280,2012-10-08 13:30:00
9:00 PM,80.6,73.4,79,29.83,5.6,SW,2.3,-,N/A,,Scattered Clouds,230,2012-10-08 14:00:00
9:30 PM,80.6,73.4,79,29.83,5.6,Calm,Calm,-,N/A,,Scattered Clouds,0,2012-10-08 14:30:00
10:00 PM,80.6,73.4,79,29.83,5.6,SSE,2.3,-,N/A,,Scattered Clouds,150,2012-10-08 15:00:00
10:30 PM,80.6,75.2,84,29.83,5.6,SE,2.3,-,N/A,,Scattered Clouds,140,2012-10-08 15:30:00
11:00 PM,80.6,75.2,84,29.86,5.6,SE,3.5,-,N/A,,Scattered Clouds,140,2012-10-08 16:00:00